Home > Weather > Lloydminster > Past weeks

Flag for Canada Weather for the Past 2 Weeks in Lloydminster, Alberta, Canada

Now
73 °F

Passing clouds.


Feels Like: 75 °F
Forecast: 43 / 71 °F
Wind: 16 mph from Northwest

Location: Lloydminister

Current Time: May 1, 2016 at 5:21:25 PM

Latest Report: May 1, 2016 at 4:00 PM


Visibility: 15 mi

Pressure: 30.10 "Hg (27.93 "Hg at 648m altitude)

Humidity: 17%

Dew Point: 27 °F

Location of LloydminsterLocation

Historic Weather in Lloydminster — Graph

°F

Lloydminster Temperature Yesterday

Maximum temperature yesterday: 63 °F (at 12:00 PM)
Minimum temperature yesterday: 37 °F (at 5:00 AM)
Average temperature yesterday: 52 °F

High & Low Weather Summary for the Past Weeks

 TemperatureHumidityPressure
High77 °F (Apr 19, 4:00 PM)100% (Apr 24, 9:50 PM)30.45 "Hg (Apr 24, 9:50 PM)
Low23 °F (Apr 21, 5:00 AM)12% (Apr 18, 3:00 PM)29.85 "Hg (Apr 19, 8:00 PM)
Average47 °F53%30.18 "Hg
* Reported Apr 16 3:00 PM — May 1 3:00 PM, Lloydminster, Weather by CustomWeather, © 2016

Note: Actual official high and low records may vary slightly from our data, if they occured in-between our weather recording intervals... More about our weather records

Advertising

Lloydminster Weather History for the Previous 24 Hours

Scroll right to see more
 ConditionsComfort  
Time TempWeatherWind HumidityBarometerVisibility
3:00 PM
Sun, May 1
73 °FPartly sunny.18 mph16%30.11 "Hg15 mi
2:00 PM72 °FScattered clouds.17 mph22%30.14 "Hg15 mi
1:00 PM68 °FPartly sunny.10 mph24%30.18 "Hg15 mi
12:00 PM68 °FPartly sunny.13 mph26%30.19 "Hg15 mi
11:00 AM64 °FPartly sunny.13 mph32%30.22 "Hg15 mi
10:00 AM63 °FPartly sunny.14 mph37%30.24 "Hg15 mi
9:00 AM57 °FPartly sunny.12 mph44%30.25 "Hg15 mi
8:00 AM50 °FPartly sunny.12 mph62%30.27 "Hg15 mi
7:00 AM45 °FPartly sunny.10 mph71%30.28 "Hg15 mi
6:00 AM41 °FClear.10 mph76%30.28 "Hg9 mi
5:00 AM43 °FClear.12 mph71%30.27 "Hg9 mi
4:00 AM41 °FClear.9 mph76%30.28 "Hg9 mi
3:00 AM43 °FClear.8 mph71%30.28 "Hg9 mi
2:00 AM45 °FClear.9 mph66%30.28 "Hg9 mi
1:00 AM45 °FClear.10 mph66%30.29 "Hg9 mi
12:00 AM46 °FClear.9 mph66%30.29 "Hg9 mi
11:00 PM
Sat, Apr 30
46 °FPassing clouds.8 mph66%30.29 "Hg9 mi
10:00 PM48 °FPassing clouds.7 mph62%30.31 "Hg15 mi
9:00 PM52 °FPassing clouds.7 mph50%30.29 "Hg15 mi
8:00 PM55 °FScattered clouds.8 mph47%30.30 "Hg15 mi
7:00 PM59 °FPartly sunny.10 mph42%30.30 "Hg15 mi
6:00 PM61 °FOvercast.14 mph39%30.31 "Hg15 mi
5:00 PM61 °FOvercast.13 mph39%30.31 "Hg15 mi
Weather by CustomWeather, © 2016

See weather overviewHow to use our weather pages